ROBUSTA-3A
1 60243U 24128J   26254.75821558  .00003929  00000-0  23405-3 0  9992
2 60243  61.9844 261.8546 0028986 145.8051 214.4920 15.12687484119513
CatSat
1 60246U 24125J   26254.55793730  .00097491  00000-0  77053-3 0  9995
2 60246  97.1955 108.8759 0015025 209.9169 150.1237 15.70923649120898
AO-123
1 61781U 24199AY  26254.79591410  .00006267  00000-0  17603-3 0  9994
2 61781  97.2852 122.6917 0013500   5.7947 354.3451 15.36804178147221
LASARsat
1 62391U 24247Q   26254.39086300  .00032928  00000-0  54161-3 0  9992
2 62391  44.9723 135.8585 0008647 180.2948 179.7941 15.51798947 96687
CroCube
1 62394U 24247T   26254.06680705  .00040936  00000-0  60575-3 0  9992
2 62394  44.9695 133.3082 0009251 188.0193 172.0553 15.54622235 96687
JINJUSat 1B
1 63210U 25052A   26254.66434000  .00014343  00000-0  41124-3 0  9998
2 63210  97.3877 151.6350 0004856 115.9363 244.2381 15.35987638 83366
NUSHSAT 1
1 63211U 25052B   26254.42012008  .00017412  00000-0  45037-3 0  9990
2 63211  97.3855 152.2943 0004576 117.3047 242.8665 15.39142767 83394
TEVEL2-4
1 63213U 25052D   26254.69391253  .00015924  00000-0  43556-3 0  9993
2 63213  97.3772 151.3471 0003902 125.2119 234.9491 15.37437472 83397
TEVEL2-5
1 63214U 25052E   26253.68392780  .00014527  00000-0  40092-3 0  9998
2 63214  97.3774 150.2541 0003706 128.0683 232.0897 15.37181739 83239
TEVEL2-6
1 63215U 25052F   26253.69817152  .00014618  00000-0  40380-3 0  9996
2 63215  97.3770 150.2528 0003641 128.4915 231.6657 15.37151529 83234
TEVEL2-1
1 63217U 25052H   26253.69461802  .00013776  00000-0  38859-3 0  9997
2 63217  97.3753 149.7655 0003436 140.5489 219.6006 15.36511928 83218
TEVEL2-3
1 63218U 25052J   26254.66240370  .00015543  00000-0  43659-3 0  9999
2 63218  97.3752 150.7708 0003260 134.6279 225.5231 15.36618213 83362
TEVEL2-2
1 63219U 25052K   26253.69427211  .00013752  00000-0  38776-3 0  9997
2 63219  97.3752 149.7687 0003425 140.3730 219.7765 15.36525253 83218
TEVEL2-9
1 63237U 25052AD  26254.04898991  .00012936  00000-0  39121-3 0  9992
2 63237  97.3808 149.2997 0005714 174.3081 185.8228 15.34325126 83186
TEVEL2-7
1 63238U 25052AE  26254.69528281  .00012595  00000-0  38513-3 0  9991
2 63238  97.3808 149.8217 0005754 173.7711 186.3604 15.33981921 83279
TEVEL2-8
1 63239U 25052AF  26254.18240353  .00012352  00000-0  37806-3 0  9992
2 63239  97.3814 149.2831 0005693 175.3030 184.8268 15.33957332 83196
SPIRONE
1 66657U 25274H   26254.33631977  .00001490  00000-0  14554-3 0  9994
2 66657  97.7476 182.4096 0013621  87.6699 272.6080 14.93830908 43085
K-HERO
1 66660U 25274L   26254.04973588  .00001004  00000-0  98802-4 0  9993
2 66660  97.7484 182.3502 0015470  92.1163 268.1829 14.94226495 43059
SNUGLITE-III DURI
1 66661U 25274M   26254.23707460  .00001211  00000-0  11802-3 0  9993
2 66661  97.7482 182.5556 0016121  92.4573 267.8493 14.94237127 43081
SAKHACUBE-CHOLBON
1 67290U 25313AU  26254.14931319  .00007339  00000-0  28555-3 0  9998
2 67290  97.3872 328.1616 0010134  59.1384 301.0850 15.26264972 39089
RS95S (QMR-KWT-2)
1 67291U 25313AV  26254.43340031  .00010627  00000-0  38736-3 0  9992
2 67291  97.3867 328.8386 0009424  56.5120 303.7019 15.28316202 39154
Ten-Koh2
1 68261U 25241B   26254.09502625  .00003775  00000-0  16335-3 0  9998
2 68261  51.6618 270.4618 0008021  68.3373 291.8459 15.24836677 28019
JACK-002
1 68417U 26067B   26254.40808709  .00004834  00000-0  22551-3 0  9999
2 68417  97.4658 212.0308 0002222  33.5018 326.6358 15.20321297 25047
DISCO 2
1 68431U 26067R   26254.44106817  .00006399  00000-0  29831-3 0  9996
2 68431  97.4690 212.0628 0004001  70.8856 289.2812 15.20215741 25040
HADES-SA (SpinnyONE)
1 68446U 26067AG  26254.37105858  .00014623  00000-0  64744-3 0  9999
2 68446  97.4480 211.5794 0008478 122.5536 237.6520 15.21721442 25025
PARUS-6U1
1 68456U 26067AS  26254.61148734  .00004088  00000-0  20253-3 0  9998
2 68456  97.4645 211.7351 0007214 115.0212 245.1772 15.18299349 25042
SAL-E
1 68458U 26067AU  26254.45262333  .00005227  00000-0  25408-3 0  9997
2 68458  97.4567 211.4797 0007362 122.3198 237.8750 15.18836489 25020
FSI-SAT 2
1 68792U 26088A   26254.39735120  .00002872  00000-0  19332-3 0  9995
2 68792  97.5189  41.5899 0014570 166.6459 193.5158 15.07416399 21272
OrigamiSat 2
1 68795U 26088D   26254.39797262  .00008933  00000-0  54491-3 0  9992
2 68795  97.5178  42.0450 0015531 139.5450 220.6938 15.10462289 21305
ARICA 2
1 68796U 26088E   26254.44752451  .00002971  00000-0  19133-3 0  9990
2 68796  97.5178  41.9650 0016375 139.1120 221.1340 15.09012446 21300
WASEDA-SAT-ZERO-II
1 68797U 26088F   26254.35754618  .00005205  00000-0  32793-3 0  9998
2 68797  97.5175  41.9253 0016113 139.2344 221.0094 15.09477660 21292
MANGARO-II-Piscus
1 68798U 26088G   26254.41516279  .00003135  00000-0  19976-3 0  9993
2 68798  97.5192  42.0222 0019772 142.2141 218.0481 15.09309425 21304
CO-128
1 69912U 26156AV  26254.72034950  .00001065  00000-0  11344-3 0  9994
2 69912  97.7480 153.9884 0001090 308.2105  51.9015 14.90936183  9892
MARINA
1 69920U 26156BD  26254.19850925  .00001773  00000-0  17968-3 0  9996
2 69920  97.7448 153.5706 0006165 304.1341  55.9293 14.92150718  9828
IO-86
1 40931U          26199.45381863  .00000000  00000-0  77536-4 0    07
2 40931   6.0006 322.6653 0012733 338.8432 273.6875 14.79294310    03
LILIUM-4                
1 71922C 26067AC  26089.50133053 -.00014632  00000+0 -74472-3 0    04
2 71922  97.4497  49.1617 0004341   5.9603 355.7042 15.16896692    16
